DW2891 Weather Reports


Display with metric or nautical units.
time (UTC)temp
F
wind
direction
speed
MPH
gust
MPH
rain 1hr
in
rain 24hr
in
rain mn
in
humidity
%
barometer
mb
20260507221106 63 294 0.0 0.0 0.00 0.00 0.00 62 1017.3
20260507220605 64 298 1.0 8.0 0.00 0.00 0.00 61 1017.3
20260507220105 64 101 0.0 5.0 0.00 0.00 0.00 61 1017.3
20260507215604 63 52 0.0 0.0 0.00 0.00 0.00 58 1017.3
20260507215105 63 291 0.0 2.0 0.00 0.00 0.00 60 1017.6
20260507213605 63 57 0.0 1.0 0.00 0.00 0.00 59 1017.7
20260507213106 63 45 0.0 1.0 0.00 0.00 0.00 61 1017.8
20260507212605 63 42 1.0 3.0 0.00 0.00 0.00 62 1017.8
20260507212104 63 41 0.0 0.0 0.00 0.00 0.00 63 1017.9
20260507211605 62 41 0.0 2.0 0.00 0.00 0.00 63 1017.9
20260507211106 63 24 0.0 3.0 0.00 0.00 0.00 63 1018.0
20260507210605 62 331 0.0 6.0 0.00 0.00 0.00 64 1018.1
20260507210105 63 133 0.0 5.0 0.00 0.00 0.00 62 1018.2
20260507205605 63 74 0.0 2.0 0.00 0.00 0.00 63 1018.2
20260507205106 63 74 0.0 1.0 0.00 0.00 0.00 63 1018.2
20260507204605 63 74 1.0 2.0 0.00 0.00 0.00 67 1018.4
20260507204104 62 81 0.0 6.0 0.00 0.00 0.00 62 1018.5
20260507202605 63 299 1.0 6.0 0.00 0.00 0.00 63 1018.6
20260507202105 63 74 0.0 0.0 0.00 0.00 0.00 64 1018.6
20260507201605 61 74 1.0 5.0 0.00 0.00 0.00 64 1018.6
20260507201105 61 332 0.0 8.0 0.00 0.00 0.00 66 1018.7
20260507200605 61 297 2.0 8.0 0.00 0.00 0.00 64 1018.7
20260507200105 61 271 1.0 6.0 0.00 0.00 0.00 63 1018.7
20260507195605 61 73 0.0 5.0 0.00 0.00 0.00 64 1018.8
20260507195105 60 4 0.0 9.0 0.00 0.00 0.00 65 1018.9
20260507194605 60 326 2.0 8.0 0.00 0.00 0.00 65 1018.8
20260507194105 60 312 1.0 6.0 0.00 0.00 0.00 64 1018.8
20260507193104 60 37 1.0 5.0 0.00 0.00 0.00 66 1019.1
20260507192604 60 292 3.0 9.0 0.00 0.00 0.00 65 1019.1
20260507192105 61 50 0.0 0.0 0.00 0.00 0.00 63 1019.2
20260507191605 60 314 2.0 8.0 0.00 0.00 0.00 64 1019.2
20260507191105 62 58 1.0 5.0 0.00 0.00 0.00 65 1019.1
20260507190604 60 282 0.0 9.0 0.00 0.00 0.00 66 1019.1
20260507190105 62 91 0.0 1.0 0.00 0.00 0.00 67 1019.2
20260507185605 61 312 0.0 0.0 0.00 0.00 0.00 64 1019.2
20260507185105 62 89 0.0 0.0 0.00 0.00 0.00 68 1019.3
20260507184605 60 89 0.0 10.0 0.00 0.00 0.00 68 1019.2
20260507184105 61 300 0.0 10.0 0.00 0.00 0.00 65 1019.3
20260507183605 61 38 0.0 0.0 0.00 0.00 0.00 69 1019.3
20260507183105 60 31 0.0 1.0 0.00 0.00 0.00 65 1019.3
20260507182605 61 47 1.0 5.0 0.00 0.00 0.00 67 1019.4
20260507182105 61 52 0.0 1.0 0.00 0.00 0.00 70 1019.4
20260507181605 61 60 0.0 0.0 0.00 0.00 0.00 65 1019.4
20260507181105 60 60 0.0 3.0 0.00 0.00 0.00 69 1019.4
20260507180605 60 310 2.0 8.0 0.00 0.00 0.00 66 1019.5
20260507175605 59 97 0.0 3.0 0.00 0.00 0.00 69 1019.6
20260507175104 60 80 2.0 8.0 0.00 0.00 0.00 68 1019.6
20260507174605 59 77 0.0 5.0 0.00 0.00 0.00 71 1019.8
20260507174105 60 44 0.0 3.0 0.00 0.00 0.00 70 1019.8
20260507173604 59 54 0.0 0.0 0.00 0.00 0.00 72 1019.8
20260507173105 58 54 0.0 3.0 0.00 0.00 0.00 70 1019.8
20260507172105 58 94 1.0 6.0 0.00 0.00 0.00 70 1019.7
20260507171105 59 63 0.0 6.0 0.00 0.00 0.00 69 1019.8
20260507170605 59 58 0.0 0.0 0.00 0.00 0.00 69 1019.8
20260507170105 58 58 0.0 5.0 0.00 0.00 0.00 68 1019.8
20260507165605 58 57 0.0 2.0 0.00 0.00 0.00 70 1019.8
20260507165105 58 308 1.0 9.0 0.00 0.00 0.00 70 1019.8
20260507164605 57 341 0.0 2.0 0.00 0.00 0.00 71 1019.8
20260507164105 57 48 0.0 3.0 0.00 0.00 0.00 72 1019.8
20260507163605 57 275 0.0 5.0 0.00 0.00 0.00 70 1019.8
20260507163104 57 323 1.0 8.0 0.00 0.00 0.00 70 1019.8
20260507162605 57 67 0.0 1.0 0.00 0.00 0.00 68 1019.9
20260507161605 57 331 0.0 0.0 0.00 0.00 0.00 73 1019.9
20260507161105 56 325 0.0 0.0 0.00 0.00 0.00 76 1019.9
20260507160605 55 325 0.0 0.0 0.00 0.00 0.00 75 1020.0
20260507160104 55 325 0.0 0.0 0.00 0.00 0.00 75 1020.0
20260507154604 54 325 1.0 6.0 0.00 0.00 0.00 74 1020.0
20260507154105 54 61 0.0 0.0 0.00 0.00 0.00 75 1020.0
20260507153604 54 61 0.0 2.0 0.00 0.00 0.00 74 1020.0
20260507153104 53 263 0.0 0.0 0.00 0.00 0.00 76 1020.0
20260507152604 53 263 1.0 2.0 0.00 0.00 0.00 75 1020.0
20260507151605 52 306 1.0 6.0 0.00 0.00 0.00 76 1020.0
20260507151105 52 226 0.0 2.0 0.00 0.00 0.00 76 1020.0
20260507150105 52 250 0.0 0.0 0.00 0.00 0.00 77 1020.0
20260507145605 51 246 0.0 0.0 0.00 0.00 0.00 77 1020.1
20260507145105 51 246 0.0 0.0 0.00 0.00 0.00 77 1020.1
20260507144605 51 246 0.0 0.0 0.00 0.00 0.00 77 1020.1
20260507144105 51 246 0.0 0.0 0.00 0.00 0.00 77 1020.2
20260507143604 51 246 1.0 5.0 0.00 0.00 0.00 78 1020.2
20260507143105 51 302 0.0 0.0 0.00 0.00 0.00 78 1020.3
20260507142605 51 302 0.0 0.0 0.00 0.00 0.00 78 1020.3
20260507142105 51 291 0.0 12.0 0.00 0.00 0.00 79 1020.3
20260507141605 51 297 0.0 0.0 0.00 0.00 0.00 78 1020.3
20260507141105 51 296 0.0 0.0 0.00 0.00 0.00 79 1020.4
20260507140604 51 265 0.0 0.0 0.00 0.00 0.00 80 1020.3
20260507140104 50 265 2.0 8.0 0.00 0.00 0.00 81 1020.3
20260507135604 50 229 0.0 0.0 0.00 0.00 0.00 81 1020.3
20260507135105 50 5 0.0 0.0 0.00 0.00 0.00 82 1020.2
20260507134605 50 5 0.0 0.0 0.00 0.00 0.00 82 1020.1
20260507134105 50 5 0.0 0.0 0.00 0.00 0.00 82 1019.9
20260507133605 50 5 0.0 0.0 0.00 0.00 0.00 83 1019.9
20260507132605 49 5 0.0 0.0 0.00 0.00 0.00 84 1019.9
20260507132105 49 5 0.0 0.0 0.00 0.00 0.00 84 1019.9
20260507131604 49 5 0.0 0.0 0.00 0.00 0.00 84 1019.9
20260507131105 49 5 0.0 0.0 0.00 0.00 0.00 84 1019.9
20260507130606 49 5 0.0 0.0 0.00 0.00 0.00 85 1019.9
20260507130105 49 5 0.0 0.0 0.00 0.00 0.00 85 1019.9
20260507125604 50 5 0.0 0.0 0.00 0.00 0.00 85 1019.9
20260507125104 49 5 0.0 0.0 0.00 0.00 0.00 85 1019.9
20260507124605 49 5 0.0 0.0 0.00 0.00 0.00 85 1019.9
20260507124105 49 5 0.0 0.0 0.00 0.00 0.00 85 1019.8
20260507123605 49 5 0.0 0.0 0.00 0.00 0.00 85 1019.9
20260507123104 50 10 0.0 0.0 0.00 0.00 0.00 85 1019.8
20260507122605 50 277 0.0 0.0 0.00 0.00 0.00 85 1019.8
20260507122105 50 277 0.0 0.0 0.00 0.00 0.00 85 1019.8
20260507121605 50 277 0.0 0.0 0.00 0.00 0.00 85 1019.8
20260507121104 50 277 0.0 0.0 0.00 0.00 0.00 85 1019.9
20260507120104 50 277 0.0 0.0 0.00 0.00 0.00 84 1019.8
20260507115105 50 277 0.0 0.0 0.00 0.00 0.00 84 1019.9
20260507114605 51 277 0.0 0.0 0.00 0.00 0.00 84 1020.0
20260507114105 51 277 0.0 0.0 0.00 0.00 0.00 83 1020.0
20260507113605 51 277 0.0 0.0 0.00 0.00 0.00 82 1020.0
20260507112604 52 277 0.0 0.0 0.00 0.00 0.00 82 1020.0
20260507112104 52 277 0.0 0.0 0.00 0.00 0.00 82 1020.0
20260507111604 52 277 0.0 0.0 0.00 0.00 0.00 82 1020.0
20260507110604 52 277 0.0 1.0 0.00 0.00 0.00 82 1020.0
20260507110105 52 272 0.0 0.0 0.00 0.00 0.00 82 1020.1
20260507105605 52 272 1.0 9.0 0.00 0.00 0.00 82 1020.1
20260507105105 52 341 0.0 0.0 0.00 0.00 0.00 82 1020.1
20260507104105 52 341 0.0 0.0 0.00 0.00 0.00 82 1020.1
20260507103604 52 341 0.0 0.0 0.00 0.00 0.00 82 1020.1
20260507103104 52 341 0.0 0.0 0.00 0.00 0.00 82 1020.0
20260507102605 52 341 0.0 0.0 0.00 0.00 0.00 82 1020.0
20260507101605 52 339 0.0 0.0 0.00 0.00 0.00 84 1020.1
20260507101105 52 340 0.0 2.0 0.00 0.00 0.00 85 1020.0
20260507100605 52 340 0.0 0.0 0.00 0.00 0.00 84 1020.0
20260507100105 52 339 0.0 0.0 0.00 0.00 0.00 85 1020.0
20260507095104 52 339 0.0 0.0 0.00 0.00 0.00 86 1019.8
20260507094604 52 340 0.0 0.0 0.00 0.00 0.00 85 1019.8
20260507094104 52 339 0.0 0.0 0.00 0.00 0.00 84 1019.8
20260507093604 53 340 0.0 0.0 0.00 0.00 0.00 85 1019.8
20260507093105 53 340 0.0 0.0 0.00 0.00 0.00 85 1019.8
20260507092605 53 340 0.0 0.0 0.00 0.00 0.00 87 1019.9
20260507092105 53 339 0.0 0.0 0.00 0.00 0.00 87 1019.8
20260507091105 53 339 0.0 6.0 0.00 0.00 0.00 88 1019.8
20260507090105 53 301 1.0 8.0 0.00 0.00 0.00 91 1019.8
20260507084604 53 27 0.0 0.0 0.00 0.00 0.00 91 1019.7
20260507084104 54 27 0.0 0.0 0.00 0.00 0.00 91 1019.7
20260507083604 54 27 0.0 0.0 0.00 0.00 0.00 91 1019.7
20260507082605 54 27 0.0 0.0 0.00 0.00 0.00 91 1019.6
20260507082105 54 27 0.0 0.0 0.00 0.00 0.00 91 1019.6
20260507081605 54 27 0.0 0.0 0.00 0.00 0.00 91 1019.6
20260507081105 54 27 0.0 0.0 0.00 0.00 0.00 91 1019.7
20260507080604 54 28 0.0 0.0 0.00 0.00 0.00 91 1019.5
20260507080104 54 27 0.0 0.0 0.00 0.00 0.00 91 1019.5
20260507075604 54 28 0.0 0.0 0.00 0.00 0.00 91 1019.3
20260507075105 54 27 0.0 0.0 0.00 0.00 0.00 91 1019.3
20260507074605 54 28 0.0 0.0 0.00 0.00 0.00 91 1019.4
20260507074105 54 27 0.0 0.0 0.00 0.00 0.00 91 1019.3
20260507073605 54 27 0.0 0.0 0.00 0.00 0.00 91 1019.2
20260507072604 54 27 0.0 0.0 0.00 0.00 0.00 91 1019.3
20260507072104 54 27 0.0 0.0 0.00 0.00 0.00 91 1019.3
20260507071604 54 27 0.0 0.0 0.00 0.00 0.00 90 1019.3
20260507071104 54 27 0.0 0.0 0.00 0.00 0.00 91 1019.2
20260507070604 54 27 0.0 0.0 0.00 0.00 0.00 90 1019.2
20260507070105 54 27 0.0 0.0 0.00 0.00 0.00 90 1019.2
20260507065604 54 27 0.0 0.0 0.00 0.00 0.00 90 1019.1
20260507064604 54 27 0.0 0.0 0.00 0.00 0.00 90 1019.1
20260507064104 54 27 0.0 0.0 0.00 0.00 0.00 90 1019.0
20260507063604 54 27 0.0 0.0 0.00 0.00 0.00 90 1019.0
20260507063104 54 27 0.0 0.0 0.00 0.00 0.00 90 1019.0
20260507062604 54 27 0.0 0.0 0.00 0.00 0.00 90 1019.2
20260507062104 54 27 0.0 0.0 0.00 0.00 0.00 90 1019.1
20260507061604 54 27 0.0 0.0 0.00 0.00 0.00 90 1019.1
20260507061104 54 27 0.0 0.0 0.00 0.00 0.00 90 1019.0
20260507060605 54 28 0.0 0.0 0.00 0.00 0.00 90 1018.9
20260507060105 54 27 0.0 0.0 0.00 0.00 0.00 90 1018.8
20260507055605 54 27 0.0 0.0 0.00 0.00 0.00 90 1018.7
20260507055105 54 27 0.0 0.0 0.00 0.00 0.00 90 1018.7
20260507054605 54 27 0.0 0.0 0.00 0.00 0.00 89 1018.7
20260507054105 54 27 0.0 0.0 0.00 0.00 0.00 89 1018.7
20260507053605 54 27 0.0 0.0 0.00 0.00 0.00 89 1018.7
20260507053104 55 27 0.0 0.0 0.00 0.00 0.00 89 1018.7
20260507052604 55 28 0.0 0.0 0.00 0.00 0.00 89 1018.6
20260507052104 55 27 0.0 0.0 0.00 0.00 0.00 89 1018.6
20260507051604 55 27 0.0 0.0 0.00 0.00 0.00 89 1018.6
20260507051104 55 28 0.0 0.0 0.00 0.00 0.00 89 1018.7
20260507050604 55 27 0.0 0.0 0.00 0.00 0.00 89 1018.8
20260507050104 55 27 0.0 0.0 0.00 0.00 0.00 89 1018.8
20260507045604 55 28 0.0 0.0 0.00 0.00 0.00 89 1018.7
20260507045105 55 28 0.0 0.0 0.00 0.00 0.00 88 1018.8
20260507044104 55 28 0.0 0.0 0.00 0.00 0.00 88 1018.7
20260507043605 55 27 0.0 0.0 0.00 0.00 0.00 88 1018.7
20260507043104 55 27 0.0 0.0 0.00 0.00 0.00 88 1018.8
20260507042605 55 28 0.0 0.0 0.00 0.00 0.00 88 1018.8
20260507042105 55 27 0.0 0.0 0.00 0.00 0.00 88 1018.7
20260507041605 55 27 0.0 0.0 0.00 0.00 0.00 87 1018.8
20260507035604 56 28 0.0 0.0 0.00 0.00 0.00 86 1018.8
20260507034605 56 28 0.0 0.0 0.00 0.00 0.00 86 1018.5
20260507034104 56 28 0.0 0.0 0.00 0.00 0.00 85 1018.7
20260507033104 56 27 0.0 0.0 0.00 0.00 0.00 85 1018.5
20260507032604 56 27 0.0 0.0 0.00 0.00 0.00 85 1018.5
20260507032105 56 27 0.0 0.0 0.00 0.00 0.00 85 1018.4
20260507031604 56 27 0.0 0.0 0.00 0.00 0.00 84 1018.5
20260507030604 56 27 0.0 0.0 0.00 0.00 0.00 84 1018.7
20260507030104 57 27 0.0 0.0 0.00 0.00 0.00 83 1018.7
20260507025605 57 27 0.0 0.0 0.00 0.00 0.00 83 1018.6
20260507025104 57 28 0.0 0.0 0.00 0.00 0.00 83 1018.5
20260507024604 57 27 0.0 0.0 0.00 0.00 0.00 83 1018.5
20260507024104 57 27 0.0 0.0 0.00 0.00 0.00 82 1018.6
20260507023604 57 27 0.0 0.0 0.00 0.00 0.00 82 1018.5
20260507023105 57 27 0.0 0.0 0.00 0.00 0.00 82 1018.5
20260507022605 57 27 0.0 0.0 0.00 0.00 0.00 82 1018.5
20260507022105 58 28 0.0 0.0 0.00 0.00 0.00 82 1018.5
20260507021104 58 27 0.0 0.0 0.00 0.00 0.00 82 1018.5
20260507020604 58 27 0.0 0.0 0.00 0.00 0.00 82 1018.4
20260507015604 58 27 0.0 0.0 0.00 0.00 0.00 81 1018.5
20260507015104 58 27 0.0 0.0 0.00 0.00 0.00 81 1018.4
20260507014604 58 27 0.0 0.0 0.00 0.00 0.00 81 1018.4
20260507013604 57 27 0.0 0.0 0.00 0.00 0.00 82 1018.4
20260507013104 57 27 0.0 0.0 0.00 0.00 0.00 82 1018.4
20260507012604 57 27 0.0 0.0 0.00 0.00 0.00 82 1018.3
20260507012104 57 27 0.0 0.0 0.00 0.00 0.00 82 1018.5
20260507011604 57 27 0.0 0.0 0.00 0.00 0.00 83 1018.4
20260507010604 57 27 0.0 0.0 0.00 0.00 0.00 83 1018.5
20260507005604 57 28 0.0 0.0 0.00 0.00 0.00 83 1018.5
20260507004604 57 27 0.0 0.0 0.00 0.00 0.00 83 1018.6
20260507004104 57 27 0.0 0.0 0.00 0.00 0.00 83 1018.7
20260507003604 57 27 0.0 0.0 0.00 0.00 0.00 82 1018.7
20260507002604 57 27 0.0 0.0 0.00 0.00 0.00 83 1018.6
20260507002104 57 27 0.0 0.0 0.00 0.00 0.00 82 1018.7
20260507001604 57 27 0.0 0.0 0.00 0.00 0.00 82 1018.7
20260507001104 57 27 0.0 0.0 0.00 0.00 0.00 82 1018.8
20260507000604 57 27 0.0 0.0 0.00 0.00 0.00 82 1018.7
20260507000104 57 27 0.0 0.0 0.00 0.00 0.00 83 1018.7
20260506235605 57 27 0.0 0.0 0.00 0.00 0.00 83 1018.6
20260506235104 57 27 0.0 0.0 0.00 0.00 0.00 83 1018.7
20260506234604 57 27 0.0 0.0 0.00 0.00 0.00 83 1018.6
20260506234104 57 27 0.0 0.0 0.00 0.00 0.00 82 1018.7
20260506233604 57 28 0.0 0.0 0.00 0.00 0.00 82 1018.6
20260506233104 57 27 0.0 0.0 0.00 0.00 0.00 83 1018.6
20260506232604 57 27 0.0 0.0 0.00 0.00 0.00 81 1018.8
20260506232104 58 27 0.0 0.0 0.00 0.00 0.00 82 1018.7
20260506231605 58 27 0.0 0.0 0.00 0.00 0.00 81 1018.7
20260506231104 58 27 0.0 0.0 0.00 0.00 0.00 81 1018.8
20260506230604 58 27 0.0 0.0 0.00 0.00 0.00 83 1018.7
20260506230104 58 27 0.0 0.0 0.00 0.00 0.00 83 1018.7
20260506225604 58 27 0.0 0.0 0.00 0.00 0.00 81 1018.8
20260506225104 58 344 0.0 0.0 0.00 0.00 0.00 82 1018.8
20260506224604 58 300 0.0 0.0 0.00 0.00 0.00 81 1018.9
20260506224105 58 300 0.0 0.0 0.00 0.00 0.00 83 1018.8
20260506223604 58 300 0.0 2.0 0.00 0.00 0.00 81 1018.8
20260506222604 58 300 0.0 0.0 0.00 0.00 0.00 82 1019.0
20260506222104 58 300 0.0 0.0 0.00 0.00 0.00 82 1018.9
20260506221604 58 302 2.0 6.0 0.00 0.00 0.00 81 1018.8